GW5020 Weather Reports


Display with metric or nautical units.
time (UTC)temp
F
wind
direction
speed
MPH
gust
MPH
rain 1hr
in
rain 24hr
in
rain mn
in
humidity
%
barometer
mb
20260505121704 70 261 0.0 9.0 0.00 0.00 0.00 91 1005.9
20260505121201 70 3 2.0 4.0 0.00 0.00 0.00 91 1006.1
20260505120657 70 132 2.0 5.0 0.00 0.00 0.00 90 1006.0
20260505120153 70 287 1.0 3.0 0.00 0.00 0.00 90 1005.8
20260505115647 70 92 1.0 3.0 0.00 0.00 0.00 90 1005.7
20260505115145 70 175 2.0 4.0 0.00 0.00 0.00 90 1005.6
20260505114642 70 258 0.0 4.0 0.00 0.00 0.00 90 1005.6
20260505114138 70 331 2.0 2.0 0.00 0.00 0.00 90 1005.5
20260505113635 70 165 4.0 5.0 0.00 0.00 0.00 90 1005.6
20260505113131 70 78 0.0 3.0 0.00 0.00 0.00 90 1005.4
20260505112627 70 168 2.0 4.0 0.00 0.00 0.00 90 1005.5
20260505112126 70 331 3.0 4.0 0.00 0.00 0.00 89 1005.5
20260505111620 70 301 3.0 8.0 0.00 0.00 0.00 89 1005.5
20260505111116 70 342 0.0 4.0 0.00 0.00 0.00 89 1005.5
20260505110612 70 350 2.0 8.0 0.00 0.00 0.00 89 1005.7
20260505110109 70 307 3.0 3.0 0.00 0.00 0.00 89 1005.8
20260505102044 69 298 1.0 2.0 0.00 0.00 0.00 88 1005.6
20260505101543 69 37 3.0 5.0 0.00 0.00 0.00 88 1005.8
20260505101039 69 11 2.0 5.0 0.00 0.00 0.00 88 1005.8
20260505100536 69 74 0.0 4.0 0.00 0.00 0.00 88 1005.8
20260505100033 69 88 2.0 5.0 0.00 0.00 0.00 88 1005.8
20260505095529 69 204 5.0 5.0 0.00 0.00 0.00 88 1005.8
20260505095025 69 251 1.0 4.0 0.00 0.00 0.00 88 1005.6
20260505094522 69 234 0.0 3.0 0.00 0.00 0.00 88 1005.4
20260505094018 69 131 0.0 4.0 0.00 0.00 0.00 88 1005.2
20260505093514 69 231 2.0 5.0 0.00 0.00 0.00 88 1005.4
20260505093012 69 227 2.0 4.0 0.00 0.00 0.00 87 1005.5
20260505092509 69 48 2.0 4.0 0.00 0.00 0.00 87 1005.3
20260505092008 69 283 3.0 5.0 0.00 0.00 0.00 87 1005.4
20260505091504 69 110 1.0 5.0 0.00 0.00 0.00 87 1005.3
20260505091002 69 121 1.0 6.0 0.00 0.00 0.00 87 1005.8
20260505090500 69 14 1.0 4.0 0.00 0.00 0.00 87 1005.8
20260505085957 69 50 2.0 7.0 0.00 0.00 0.00 87 1005.7
20260505085455 69 226 3.0 5.0 0.00 0.00 0.00 87 1005.8
20260505084953 69 196 3.0 4.0 0.00 0.00 0.00 86 1005.8
20260505084451 69 309 1.0 5.0 0.00 0.00 0.00 86 1005.9
20260505083949 69 262 2.0 6.0 0.00 0.00 0.00 86 1005.8
20260505083446 69 240 1.0 3.0 0.00 0.00 0.00 86 1005.8
20260505082942 69 220 3.0 4.0 0.00 0.00 0.00 86 1006.1
20260505082437 69 126 0.0 4.0 0.00 0.00 0.00 86 1006.0
20260505081935 69 321 0.0 4.0 0.00 0.00 0.00 86 1006.1
20260505081432 69 307 0.0 4.0 0.00 0.00 0.00 86 1006.2
20260505080928 69 242 3.0 5.0 0.00 0.00 0.00 86 1006.2
20260505080424 69 294 0.0 2.0 0.00 0.00 0.00 86 1006.5
20260505075920 69 141 3.0 4.0 0.00 0.00 0.00 86 1006.2
20260505075417 69 339 2.0 4.0 0.00 0.00 0.00 86 1006.4
20260505074915 69 206 3.0 5.0 0.00 0.00 0.00 86 1006.4
20260505074411 69 112 2.0 3.0 0.00 0.00 0.00 86 1006.5
20260505073909 69 145 1.0 5.0 0.00 0.00 0.00 86 1006.4
20260505073407 69 235 2.0 2.0 0.00 0.00 0.00 87 1006.5
20260505072903 69 133 0.0 4.0 0.00 0.00 0.00 87 1006.4
20260505072359 69 310 0.0 3.0 0.00 0.00 0.00 87 1006.7
20260505071856 69 178 2.0 5.0 0.00 0.00 0.00 87 1006.8
20260505071352 69 107 1.0 3.0 0.00 0.00 0.00 86 1006.7
20260505070850 69 15 3.0 4.0 0.00 0.00 0.00 86 1006.8
20260505070346 69 94 0.0 2.0 0.00 0.00 0.00 86 1006.8
20260505065842 69 210 0.0 5.0 0.00 0.00 0.00 86 1006.9
20260505065339 69 267 0.0 4.0 0.00 0.00 0.00 85 1007.2
20260505064836 69 10 2.0 2.0 0.00 0.00 0.00 85 1007.0
20260505064333 70 80 2.0 3.0 0.00 0.00 0.00 85 1007.0
20260505063831 70 129 0.0 3.0 0.00 0.00 0.00 85 1007.1
20260505063326 70 22 2.0 3.0 0.00 0.00 0.00 84 1007.1
20260505062823 70 282 1.0 3.0 0.00 0.00 0.00 84 1007.1
20260505062321 70 335 1.0 3.0 0.00 0.00 0.00 84 1007.2
20260505061817 70 100 1.0 4.0 0.00 0.00 0.00 83 1007.4
20260505061316 70 86 1.0 3.0 0.00 0.00 0.00 83 1007.2
20260505060813 70 322 2.0 3.0 0.00 0.00 0.00 83 1007.3
20260505060310 70 208 2.0 6.0 0.00 0.00 0.00 83 1007.3
20260505055805 71 80 2.0 4.0 0.00 0.00 0.00 82 1007.5
20260505055303 71 243 1.0 4.0 0.00 0.00 0.00 82 1007.5
20260505054759 71 7 2.0 5.0 0.00 0.00 0.00 81 1007.2
20260505054256 71 38 1.0 4.0 0.00 0.00 0.00 81 1007.3
20260505053755 71 351 3.0 5.0 0.00 0.00 0.00 81 1007.4
20260505053251 71 238 3.0 6.0 0.00 0.00 0.00 81 1007.4
20260505052748 71 288 0.0 3.0 0.00 0.00 0.00 80 1007.4
20260505052245 71 264 5.0 5.0 0.00 0.00 0.00 79 1007.6
20260505051742 71 250 0.0 4.0 0.00 0.00 0.00 80 1007.7
20260505051240 71 176 1.0 4.0 0.00 0.00 0.00 79 1007.4
20260505050738 72 73 1.0 4.0 0.00 0.00 0.00 80 1007.4
20260505050236 71 160 2.0 3.0 0.00 0.00 0.00 79 1007.5
20260505041705 72 175 2.0 5.0 0.00 0.00 0.00 77 1007.6
20260505041203 72 199 2.0 4.0 0.00 0.00 0.00 77 1007.6
20260505040700 72 173 2.0 3.0 0.00 0.00 0.00 78 1007.5
20260505040157 72 211 2.0 2.0 0.00 0.00 0.00 77 1007.6
20260505035653 72 5 0.0 3.0 0.00 0.00 0.00 77 1007.8
20260505035150 72 124 3.0 5.0 0.00 0.00 0.00 77 1007.7
20260505034646 72 109 0.0 4.0 0.00 0.00 0.00 77 1007.6
20260505034144 72 32 0.0 3.0 0.00 0.00 0.00 76 1007.8
20260505033640 72 352 2.0 3.0 0.00 0.00 0.00 76 1007.7
20260505033139 71 107 4.0 4.0 0.00 0.00 0.00 77 1007.7
20260505032636 71 141 1.0 3.0 0.00 0.00 0.00 77 1007.5
20260505032132 71 11 0.0 2.0 0.00 0.00 0.00 78 1007.7
20260505031630 71 319 2.0 4.0 0.00 0.00 0.00 77 1007.6
20260505031125 71 320 0.0 1.0 0.00 0.00 0.00 78 1007.5
20260505030623 71 309 1.0 1.0 0.00 0.00 0.00 78 1007.5
20260505030119 71 199 1.0 1.0 0.00 0.00 0.00 79 1007.5
20260505025614 71 89 1.0 3.0 0.00 0.00 0.00 78 1007.5
20260505025114 71 130 0.0 2.0 0.00 0.00 0.00 79 1007.5
20260505024610 70 117 0.0 2.0 0.00 0.00 0.00 78 1007.4
20260505024108 70 309 0.0 1.0 0.00 0.00 0.00 78 1007.4
20260505023605 71 0 0.0 0.0 0.00 0.00 0.00 78 1007.3
20260505023102 71 187 1.0 2.0 0.00 0.00 0.00 77 1007.4
20260505022600 71 309 0.0 2.0 0.00 0.00 0.00 77 1007.2
20260505022056 71 338 0.0 2.0 0.00 0.00 0.00 77 1007.4
20260505021553 71 48 0.0 2.0 0.00 0.00 0.00 76 1007.5
20260505021050 71 141 0.0 3.0 0.00 0.00 0.00 76 1007.3
20260505020549 71 283 0.0 2.0 0.00 0.00 0.00 76 1007.5
20260505020047 71 240 0.0 3.0 0.00 0.00 0.00 75 1007.5
20260505015544 71 233 0.0 1.0 0.00 0.00 0.00 76 1007.5
20260505015041 71 117 0.0 1.0 0.00 0.00 0.00 76 1007.4
20260505014537 71 129 0.0 1.0 0.00 0.00 0.00 75 1007.4
20260505014035 71 346 0.0 1.0 0.00 0.00 0.00 75 1007.5
20260505013531 71 352 0.0 1.0 0.00 0.00 0.00 75 1007.2
20260505013029 72 0 0.0 1.0 0.00 0.00 0.00 73 1007.3
20260505012527 72 130 0.0 1.0 0.00 0.00 0.00 74 1007.1
20260505012024 72 326 0.0 2.0 0.00 0.00 0.00 73 1007.3
20260505011519 72 309 0.0 1.0 0.00 0.00 0.00 73 1007.3
20260505011017 72 180 0.0 3.0 0.00 0.00 0.00 72 1007.2
20260505010512 73 326 0.0 1.0 0.00 0.00 0.00 72 1007.3
20260505010009 73 180 0.0 2.0 0.00 0.00 0.00 71 1007.3
20260505005505 74 326 0.0 2.0 0.00 0.00 0.00 69 1007.3
20260505005004 74 216 1.0 3.0 0.00 0.00 0.00 69 1007.3
20260505004459 75 283 0.0 2.0 0.00 0.00 0.00 69 1007.0
20260505003956 75 212 2.0 3.0 0.00 0.00 0.00 68 1007.2
20260505003453 75 264 4.0 4.0 0.00 0.00 0.00 66 1007.3
20260505002950 75 175 1.0 2.0 0.00 0.00 0.00 66 1007.3
20260505002446 76 243 0.0 4.0 0.00 0.00 0.00 65 1007.3
20260505001945 76 319 3.0 3.0 0.00 0.00 0.00 65 1007.3
20260505001442 76 91 1.0 4.0 0.00 0.00 0.00 65 1007.5
20260505000938 77 102 1.0 2.0 0.00 0.00 0.00 66 1007.2
20260505000437 77 57 0.0 2.0 0.00 0.00 0.00 65 1007.3
20260504235933 77 110 0.0 2.0 0.00 0.00 0.00 65 1007.5
20260504235431 77 322 2.0 2.0 0.00 0.00 0.00 64 1007.4
20260504234926 77 274 1.0 4.0 0.00 0.00 0.00 63 1007.7
20260504234424 78 42 1.0 4.0 0.00 0.00 0.00 62 1007.5
20260504233920 78 0 0.0 5.0 0.00 0.00 0.00 61 1007.6
20260504233416 79 135 0.0 4.0 0.00 0.00 0.00 62 1007.7
20260504232913 79 18 2.0 3.0 0.00 0.00 0.00 58 1007.8
20260504232410 80 266 2.0 4.0 0.00 0.00 0.00 58 1007.9
20260504231908 81 162 2.0 4.0 0.00 0.00 0.00 57 1007.9
20260504231403 81 85 3.0 4.0 0.00 0.00 0.00 57 1007.8
20260504230900 81 150 2.0 5.0 0.00 0.00 0.00 57 1007.8
20260504230357 81 33 2.0 6.0 0.00 0.00 0.00 56 1007.9
20260504225856 81 131 0.0 2.0 0.00 0.00 0.00 59 1008.0
20260504225352 80 119 1.0 4.0 0.00 0.00 0.00 59 1007.9
20260504224850 80 75 2.0 6.0 0.00 0.00 0.00 57 1007.9
20260504224346 80 348 2.0 4.0 0.00 0.00 0.00 56 1007.9
20260504223843 80 0 2.0 4.0 0.00 0.00 0.00 57 1008.0
20260504223338 80 234 0.0 3.0 0.00 0.00 0.00 55 1007.9
20260504222835 79 159 2.0 4.0 0.00 0.00 0.00 57 1008.0
20260504222332 79 328 0.0 4.0 0.00 0.00 0.00 59 1008.2
20260504221831 79 194 3.0 5.0 0.00 0.00 0.00 56 1008.2
20260504221327 80 217 1.0 6.0 0.00 0.00 0.00 56 1008.3
20260504220824 81 107 2.0 2.0 0.00 0.00 0.00 54 1008.3
20260504220321 81 217 1.0 4.0 0.00 0.00 0.00 54 1008.2
20260504215818 83 239 1.0 6.0 0.00 0.00 0.00 50 1008.4
20260504215314 82 328 1.0 4.0 0.00 0.00 0.00 53 1008.4
20260504214811 82 345 1.0 5.0 0.00 0.00 0.00 51 1008.3
20260504214308 83 113 2.0 6.0 0.00 0.00 0.00 51 1008.6
20260504213804 83 185 4.0 4.0 0.00 0.00 0.00 50 1008.8
20260504213300 82 267 1.0 4.0 0.00 0.00 0.00 51 1008.8
20260504212758 82 95 2.0 9.0 0.00 0.00 0.00 50 1008.9
20260504212254 82 307 3.0 6.0 0.00 0.00 0.00 51 1008.9
20260504211752 82 355 2.0 4.0 0.00 0.00 0.00 52 1009.0
20260504211247 82 101 2.0 5.0 0.00 0.00 0.00 53 1009.3
20260504210745 82 10 0.0 3.0 0.00 0.00 0.00 53 1009.3
20260504210242 82 82 2.0 4.0 0.00 0.00 0.00 53 1009.5
20260504205739 81 0 3.0 4.0 0.00 0.00 0.00 52 1009.8
20260504205237 81 210 1.0 4.0 0.00 0.00 0.00 51 1009.9
20260504204735 81 37 2.0 4.0 0.00 0.00 0.00 53 1009.8
20260504204233 81 281 2.0 4.0 0.00 0.00 0.00 53 1009.9
20260504203732 82 223 2.0 5.0 0.00 0.00 0.00 52 1010.1
20260504203229 81 10 2.0 5.0 0.00 0.00 0.00 51 1010.2
20260504202723 81 330 2.0 5.0 0.00 0.00 0.00 52 1010.1
20260504202220 82 272 5.0 5.0 0.00 0.00 0.00 50 1010.1
20260504201717 82 256 0.0 4.0 0.00 0.00 0.00 51 1010.4
20260504201215 82 53 0.0 3.0 0.00 0.00 0.00 51 1010.5
20260504200712 81 62 0.0 5.0 0.00 0.00 0.00 53 1010.5
20260504200208 82 254 1.0 4.0 0.00 0.00 0.00 51 1010.5
20260504195705 82 205 2.0 4.0 0.00 0.00 0.00 49 1010.5
20260504195200 82 108 2.0 2.0 0.00 0.00 0.00 49 1010.7
20260504194658 81 89 0.0 4.0 0.00 0.00 0.00 53 1011.0
20260504194154 81 344 0.0 4.0 0.00 0.00 0.00 50 1010.9
20260504193651 81 306 1.0 7.0 0.00 0.00 0.00 52 1011.2
20260504193149 81 106 0.0 5.0 0.00 0.00 0.00 51 1011.3
20260504192647 80 260 1.0 6.0 0.00 0.00 0.00 50 1011.4
20260504192144 80 45 3.0 5.0 0.00 0.00 0.00 48 1011.2
20260504191642 80 345 3.0 7.0 0.00 0.00 0.00 48 1011.4
20260504191138 80 12 3.0 9.0 0.00 0.00 0.00 48 1011.4
20260504190634 80 247 4.0 6.0 0.00 0.00 0.00 49 1011.4
20260504190131 80 36 2.0 5.0 0.00 0.00 0.00 48 1011.5
20260504185627 80 165 0.0 2.0 0.00 0.00 0.00 50 1011.7
20260504185124 80 99 2.0 4.0 0.00 0.00 0.00 49 1011.6
20260504184620 79 77 0.0 4.0 0.00 0.00 0.00 50 1011.9
20260504184115 79 68 2.0 4.0 0.00 0.00 0.00 49 1011.7
20260504183612 79 131 1.0 10.0 0.00 0.00 0.00 49 1011.7
20260504183110 79 207 3.0 3.0 0.00 0.00 0.00 50 1011.7
20260504182607 80 337 2.0 7.0 0.00 0.00 0.00 46 1012.0
20260504182105 80 135 0.0 7.0 0.00 0.00 0.00 50 1012.1
20260504181601 78 166 1.0 7.0 0.00 0.00 0.00 49 1012.4
20260504181059 79 98 0.0 5.0 0.00 0.00 0.00 49 1012.5
20260504180558 79 71 3.0 4.0 0.00 0.00 0.00 48 1012.2
20260504180057 78 116 0.0 6.0 0.00 0.00 0.00 48 1012.6
20260504175554 79 217 2.0 6.0 0.00 0.00 0.00 50 1012.7
20260504175050 78 126 1.0 3.0 0.00 0.00 0.00 50 1012.6
20260504174548 78 27 3.0 5.0 0.00 0.00 0.00 51 1012.8
20260504174045 78 143 0.0 6.0 0.00 0.00 0.00 50 1012.5
20260504173542 77 247 1.0 5.0 0.00 0.00 0.00 50 1012.8
20260504173039 78 267 4.0 4.0 0.00 0.00 0.00 50 1013.0
20260504172535 77 69 2.0 4.0 0.00 0.00 0.00 48 1013.4
20260504172032 78 275 3.0 5.0 0.00 0.00 0.00 49 1013.3
20260504171529 77 173 0.0 3.0 0.00 0.00 0.00 50 1013.4
20260504171021 77 340 3.0 3.0 0.00 0.00 0.00 52 1013.4
20260504170516 76 359 3.0 6.0 0.00 0.00 0.00 51 1013.4
20260504160436 74 50 4.0 6.0 0.00 0.00 0.00 55 1013.8
20260504150859 71 249 2.0 4.0 0.00 0.00 0.00 59 1014.5
20260504150356 71 170 2.0 4.0 0.00 0.00 0.00 60 1014.5
20260504141326 68 347 0.0 3.0 0.00 0.00 0.00 67 1014.7
20260504140823 67 47 0.0 6.0 0.00 0.00 0.00 67 1014.5
20260504140318 67 240 2.0 4.0 0.00 0.00 0.00 67 1014.5
20260504130748 60 165 2.0 2.0 0.00 0.00 0.00 83 1014.6
20260504130243 60 89 0.0 3.0 0.00 0.00 0.00 84 1014.5